Location: Proctor
(47.8934°N, 114.3048°W)
Time: 12:11:33
(UTC+00:00)

AIST 2D - Pass Details

Date: 09 July 2022
Orbit: 433 x 443 km, 97.0° (Epoch: 11 August)

Event Time Altitude Azimuth Distance (km) Brightness Sun altitude
Rises 04:39:53 0° 22° (NNE) 2,432 ? -8.7°
Reaches altitude 10° 04:42:06 10° 34° (NE) 1,560 ? -8.9°
Maximum altitude 04:45:02 28° 96° (E) 860 ? -9.3°
Enters shadow 04:47:25 13° 152° (SSE) 1,365 ? -9.5°
